{"data":{"norad_id":66174,"epoch":"2026-05-25T00:31:04.224288Z","epoch_age_seconds":73417,"freshness":"FRESH","line1":"1 66174U 25241A   26145.02157667  .00024628  00000+0  26236-3 0  9993","line2":"2 66174  51.6363  57.5527 0007748  97.0203 263.1673 15.63802982 32724","mean_motion":15.63802982,"eccentricity":0.0007748,"inclination_deg":51.6363,"raan_deg":57.5527,"arg_perigee_deg":97.0203,"mean_anomaly_deg":263.1673,"bstar":0.00026236,"rev_number":3272,"period_min":92.083211029457,"perigee_km":371.44992654369,"apogee_km":381.91719648581,"semimajor_km":6754.8205615147,"source":"CELESTRAK","updated_at":"2026-05-25T13:38:08.447818Z"}}